Location: Catstown
(52.4386°N, 7.2633°W)
Time: 16:01:56
(UTC+00:00)

NOSS 3-4 (A) - Visible Passes

Search period start: 30 November 2021 00:00
Search period end: 10 December 2021 00:00
Orbit: 861 x 1351 km, 63.4° (Epoch: 28 November)

Date Brightness Start Highest point End Pass type
(mag) Time Alt. Az. Time Alt. Az. Time Alt. Az.
30 Nov 4.6 17:42:01 10° WNW 17:47:33 33° N 17:52:23 15° NE visible
30 Nov 4.4 19:34:06 10° NW 19:39:49 38° NNE 19:39:49 38° NNE visible
30 Nov 5.6 21:25:09 10° NW 21:27:15 22° NW 21:27:15 22° NW visible
01 Dec 4.4 16:56:43 10° W 17:02:18 36° NNW 17:08:27 10° NE visible
01 Dec 4.5 18:49:05 10° NW 18:54:51 34° N 18:56:28 30° NE visible
01 Dec 4.9 20:40:21 10° NW 20:43:54 34° NNW 20:43:54 34° NNW visible
01 Dec 6.4 22:31:20 10° NW 22:31:20 10° NW 22:31:20 10° NW visible
02 Dec 4.6 18:03:58 10° WNW 18:09:35 32° N 18:13:07 21° NE visible
02 Dec 4.3 19:55:31 10° NW 20:00:33 44° N 20:00:33 44° N visible
02 Dec 5.9 21:46:26 10° NW 21:48:00 19° NW 21:48:00 19° NW visible
03 Dec 4.5 17:18:46 10° WNW 17:24:17 32° N 17:29:49 12° NE visible
03 Dec 4.2 19:10:38 10° NW 19:16:47 41° NNE 19:17:15 41° NNE visible
03 Dec 5.2 21:01:36 10° NW 21:04:41 31° NW 21:04:41 31° NW visible
04 Dec 4.4 18:25:41 10° NW 18:31:34 36° NNE 18:33:58 28° NE visible
04 Dec 4.4 20:16:47 10° NW 20:21:25 47° NNW 20:21:25 47° NNW visible
04 Dec 6.1 22:07:53 10° NW 22:08:52 15° WNW 22:08:52 15° WNW visible
05 Dec 4.5 17:40:37 10° NW 17:46:18 33° N 17:50:44 17° ENE visible
05 Dec 3.9 19:31:59 10° NW 19:38:11 56° NNE 19:38:11 56° NNE visible
05 Dec 5.5 21:22:55 10° NW 21:25:38 26° WNW 21:25:38 26° WNW visible
06 Dec 4.5 16:55:27 10° WNW 17:01:01 32° N 17:07:09 10° ENE visible
06 Dec 4.1 18:47:08 10° NW 18:53:26 46° NNE 18:55:00 40° ENE visible
06 Dec 4.6 20:38:03 10° NW 20:42:27 45° WNW 20:42:27 45° WNW visible
06 Dec 6.4 22:29:50 10° WNW 22:29:54 10° WNW 22:29:54 10° WNW visible
07 Dec 4.3 18:02:14 10° NW 18:08:16 39° NNE 18:11:53 24° ENE visible
07 Dec 3.8 19:53:14 10° NW 19:59:21 74° NNW 19:59:21 74° NNW visible
07 Dec 5.8 21:44:30 10° WNW 21:46:48 20° WNW 21:46:48 20° WNW visible
08 Dec 4.4 17:17:14 10° NW 17:23:01 34° NNE 17:28:50 12° ENE visible
08 Dec 3.7 19:08:25 10° NW 19:15:05 65° NE 19:16:18 56° E visible
08 Dec 5.0 20:59:26 10° NW 21:03:46 36° W 21:03:46 36° W visible
09 Dec 3.9 18:23:36 10° NW 18:30:03 52° NNE 18:33:22 31° E visible
09 Dec 4.1 20:14:31 10° NW 20:20:50 62° WSW 20:20:50 62° WSW visible
09 Dec 6.2 22:06:52 10° WNW 22:08:19 14° W 22:08:19 14° W visible
